Вернуться в каталог

EUTELSAT 10B

АктивенСвязьGEO
NORAD 54259·PAYLOAD·🇪🇺 EU

Запущен Nov 23, 2022 с Cape Canaveral Space Force Station

Loading…

TLE

СвежийSource: Space-Track

Эпоха: Sep 14, 2026, 13:51 UTC

1 54259U 22157A   26257.57709435  .00000060  00000-0  00000-0 0  9990
2 54259   0.0563 102.1679 0001656 359.0613 110.0718  1.00269423 13922

Отслеживайте EUTELSAT 10B в реальном времени с AllMySat

Download on the App Store